TimeCDT,TemperatureF,Dew PointF,Humidity,Sea Level PressureIn,VisibilityMPH,Wind Direction,Wind SpeedMPH,Gust SpeedMPH,PrecipitationIn,Events,Conditions,WindDirDegrees,DateUTC
12:15 AM,62.6,33.8,34,29.85,10.0,South,17.3,24.2,N/A,,Clear,170,2012-10-04 05:15:00
12:35 AM,62.6,35.6,37,29.85,10.0,South,21.9,-,N/A,,Clear,170,2012-10-04 05:35:00
12:55 AM,62.6,35.6,37,29.85,10.0,South,19.6,26.5,N/A,,Clear,180,2012-10-04 05:55:00
1:15 AM,59.0,37.4,45,29.87,10.0,SSW,16.1,21.9,N/A,,Clear,200,2012-10-04 06:15:00
1:35 AM,59.0,37.4,45,29.87,10.0,SW,19.6,-,N/A,,Clear,220,2012-10-04 06:35:00
1:55 AM,57.2,37.4,48,29.89,9.0,WSW,18.4,-,N/A,,Scattered Clouds,250,2012-10-04 06:55:00
2:15 AM,53.6,39.2,58,29.91,8.0,West,19.6,31.1,N/A,,Overcast,270,2012-10-04 07:15:00
2:35 AM,51.8,39.2,62,29.92,10.0,West,17.3,26.5,N/A,,Overcast,270,2012-10-04 07:35:00
2:55 AM,50.0,41.0,71,29.93,10.0,West,18.4,24.2,N/A,,Partly Cloudy,280,2012-10-04 07:55:00
3:15 AM,50.0,41.0,71,29.93,10.0,West,18.4,-,N/A,,Clear,280,2012-10-04 08:15:00
3:35 AM,50.0,41.0,71,29.94,10.0,West,19.6,26.5,N/A,,Mostly Cloudy,280,2012-10-04 08:35:00
3:55 AM,48.2,41.0,76,29.95,10.0,West,19.6,28.8,N/A,,Overcast,270,2012-10-04 08:55:00
4:15 AM,48.2,39.2,71,29.96,10.0,West,15.0,21.9,N/A,,Overcast,280,2012-10-04 09:15:00
4:35 AM,48.2,39.2,71,29.98,10.0,West,17.3,-,N/A,,Overcast,280,2012-10-04 09:35:00
4:55 AM,48.2,39.2,71,30.00,10.0,West,16.1,23.0,N/A,,Partly Cloudy,270,2012-10-04 09:55:00
5:15 AM,48.2,39.2,71,30.01,10.0,West,19.6,-,N/A,,Mostly Cloudy,280,2012-10-04 10:15:00
5:35 AM,46.4,39.2,76,30.00,10.0,WNW,20.7,27.6,N/A,,Mostly Cloudy,290,2012-10-04 10:35:00
5:55 AM,46.4,39.2,76,30.02,10.0,West,18.4,27.6,N/A,,Partly Cloudy,280,2012-10-04 10:55:00
6:15 AM,46.4,37.4,71,30.02,10.0,WNW,15.0,25.3,N/A,,Mostly Cloudy,290,2012-10-04 11:15:00
6:35 AM,46.4,37.4,71,30.02,9.0,West,16.1,25.3,N/A,,Overcast,280,2012-10-04 11:35:00
6:55 AM,46.4,39.2,76,30.03,10.0,WNW,18.4,27.6,N/A,,Light Drizzle,290,2012-10-04 11:55:00
7:15 AM,44.6,37.4,76,30.05,10.0,WNW,17.3,24.2,N/A,,Mostly Cloudy,290,2012-10-04 12:15:00
7:35 AM,44.6,37.4,76,30.05,10.0,WNW,16.1,-,N/A,,Mostly Cloudy,290,2012-10-04 12:35:00
7:55 AM,44.6,35.6,71,30.05,10.0,WNW,19.6,-,N/A,,Mostly Cloudy,290,2012-10-04 12:55:00
8:15 AM,44.6,35.6,71,30.06,10.0,WNW,16.1,27.6,N/A,,Scattered Clouds,300,2012-10-04 13:15:00
8:35 AM,44.6,35.6,71,30.07,9.0,WNW,19.6,27.6,N/A,,Partly Cloudy,300,2012-10-04 13:35:00
8:55 AM,44.6,33.8,66,30.07,10.0,NW,25.3,32.2,N/A,,Scattered Clouds,310,2012-10-04 13:55:00
9:15 AM,44.6,35.6,71,30.08,10.0,WNW,21.9,28.8,N/A,,Mostly Cloudy,290,2012-10-04 14:15:00
9:35 AM,46.4,35.6,66,30.09,9.0,WNW,24.2,29.9,N/A,,Mostly Cloudy,300,2012-10-04 14:35:00
9:55 AM,46.4,35.6,66,30.10,9.0,WNW,23.0,29.9,N/A,,Overcast,300,2012-10-04 14:55:00
10:15 AM,46.4,33.8,62,30.10,10.0,NW,25.3,32.2,N/A,,Mostly Cloudy,310,2012-10-04 15:15:00
10:35 AM,46.4,33.8,62,30.11,10.0,WNW,23.0,31.1,N/A,,Overcast,300,2012-10-04 15:35:00
10:55 AM,46.4,33.8,62,30.12,10.0,NW,18.4,35.7,N/A,,Overcast,310,2012-10-04 15:55:00
11:15 AM,48.2,33.8,58,30.12,10.0,NW,25.3,34.5,N/A,,Overcast,320,2012-10-04 16:15:00
11:35 AM,48.2,32.0,54,30.13,10.0,NW,25.3,31.1,N/A,,Overcast,310,2012-10-04 16:35:00
11:55 AM,48.2,33.8,58,30.13,10.0,NW,19.6,28.8,N/A,,Overcast,310,2012-10-04 16:55:00
12:15 PM,48.2,33.8,58,30.14,10.0,WNW,18.4,27.6,N/A,,Overcast,300,2012-10-04 17:15:00
12:35 PM,48.2,33.8,58,30.15,10.0,NW,19.6,29.9,N/A,,Overcast,320,2012-10-04 17:35:00
12:55 PM,50.0,32.0,50,30.15,10.0,NW,20.7,-,N/A,,Overcast,310,2012-10-04 17:55:00
1:35 PM,53.6,32.0,44,30.15,10.0,WNW,20.7,28.8,N/A,,Mostly Cloudy,290,2012-10-04 18:35:00
1:55 PM,53.6,32.0,44,30.15,10.0,NW,23.0,28.8,N/A,,Mostly Cloudy,310,2012-10-04 18:55:00
2:15 PM,53.6,32.0,44,30.15,10.0,WNW,19.6,26.5,N/A,,Scattered Clouds,300,2012-10-04 19:15:00
2:35 PM,53.6,32.0,44,30.16,10.0,WNW,15.0,28.8,N/A,,Partly Cloudy,300,2012-10-04 19:35:00
2:55 PM,53.6,32.0,44,30.16,10.0,WNW,19.6,27.6,N/A,,Scattered Clouds,300,2012-10-04 19:55:00
3:15 PM,53.6,32.0,44,30.16,10.0,WNW,17.3,26.5,N/A,,Scattered Clouds,300,2012-10-04 20:15:00
3:35 PM,53.6,30.2,41,30.16,10.0,WNW,18.4,31.1,N/A,,Scattered Clouds,300,2012-10-04 20:35:00
3:55 PM,53.6,30.2,41,30.17,10.0,NW,21.9,29.9,N/A,,Partly Cloudy,310,2012-10-04 20:55:00
4:15 PM,53.6,30.2,41,30.17,10.0,WNW,16.1,25.3,N/A,,Partly Cloudy,300,2012-10-04 21:15:00
4:35 PM,51.8,30.2,44,30.18,10.0,NW,18.4,26.5,N/A,,Partly Cloudy,310,2012-10-04 21:35:00
4:55 PM,51.8,30.2,44,30.18,10.0,NW,18.4,26.5,N/A,,Clear,320,2012-10-04 21:55:00
5:15 PM,51.8,30.2,44,30.18,10.0,NW,20.7,27.6,N/A,,Partly Cloudy,320,2012-10-04 22:15:00
5:35 PM,51.8,30.2,44,30.19,10.0,NW,18.4,28.8,N/A,,Clear,320,2012-10-04 22:35:00
5:55 PM,50.0,30.2,47,30.19,10.0,NW,17.3,24.2,N/A,,Clear,320,2012-10-04 22:55:00
6:15 PM,50.0,30.2,47,30.19,10.0,NW,12.7,20.7,N/A,,Clear,320,2012-10-04 23:15:00
6:35 PM,48.2,30.2,50,30.20,10.0,NW,15.0,21.9,N/A,,Clear,320,2012-10-04 23:35:00
6:55 PM,48.2,30.2,50,30.21,10.0,NW,12.7,-,N/A,,Clear,320,2012-10-04 23:55:00
7:15 PM,46.4,28.4,50,30.22,10.0,NW,11.5,-,N/A,,Clear,310,2012-10-05 00:15:00
7:35 PM,44.6,28.4,53,30.22,10.0,NW,10.4,16.1,N/A,,Clear,320,2012-10-05 00:35:00
7:55 PM,44.6,28.4,53,30.22,10.0,NW,9.2,-,N/A,,Partly Cloudy,320,2012-10-05 00:55:00
8:15 PM,44.6,28.4,53,30.22,-9999.0,NW,12.7,-,N/A,,Mostly Cloudy,320,2012-10-05 01:15:00
8:35 PM,44.6,28.4,53,30.22,10.0,NNW,13.8,-,N/A,,Partly Cloudy,330,2012-10-05 01:35:00
8:55 PM,44.6,28.4,53,30.22,10.0,NW,11.5,-,N/A,,Clear,320,2012-10-05 01:55:00
9:15 PM,44.6,28.4,53,30.22,10.0,NW,11.5,-,N/A,,Clear,320,2012-10-05 02:15:00
9:35 PM,42.8,28.4,57,30.22,10.0,NW,11.5,18.4,N/A,,Clear,320,2012-10-05 02:35:00
9:55 PM,42.8,28.4,57,30.23,10.0,NW,9.2,-,N/A,,Mostly Cloudy,310,2012-10-05 02:55:00
10:15 PM,42.8,28.4,57,30.24,10.0,NW,9.2,-,N/A,,Overcast,310,2012-10-05 03:15:00
10:35 PM,42.8,28.4,57,30.23,10.0,NW,11.5,-,N/A,,Overcast,310,2012-10-05 03:35:00
10:55 PM,42.8,28.4,57,30.23,10.0,NW,11.5,20.7,N/A,,Mostly Cloudy,320,2012-10-05 03:55:00
11:15 PM,42.8,28.4,57,30.24,10.0,NW,8.1,-,N/A,,Overcast,320,2012-10-05 04:15:00
11:35 PM,41.0,28.4,61,30.25,10.0,NW,11.5,-,N/A,,Mostly Cloudy,310,2012-10-05 04:35:00
11:55 PM,41.0,26.6,57,30.25,10.0,NW,11.5,17.3,N/A,,Partly Cloudy,310,2012-10-05 04:55:00